ONEWEB-0706, 61611

Orbit data source: Space-Track

ONEWEB-0706, 61611 is a payload satellite owned by Eut. One Web (UK) in LEO that was launched on Sun, 20 Oct 2024 UTC via an FALCON 9 launch vehicle from the Air Force Western Test Range (AFWTR). Payload-class satellites include a variety of spacecraft equipped with specific instruments for various scientific and technological missions. These include communications satellites like Starlink; space stations such as the ISS; scientific satellites like the Hubble; Earth observation satellites from companies like Planet Labs, Umbra, and HawkEye 360; GPS; miniature CubeSats for education and research; and military/defense satellites.

Loading next visibility...
Identifier
61611, 2024-188T
Orbit
LEO
Country
Flag of UKUK
Related business
Manufacturer
One Web
Mission
Operational Commercial Communications
Bus & Motor
ARROW, Unknown motor
Mass
148 kg wet, ~140 kg dry
Launch date (UTC)
2024-10-20 (11 months ago)
Launch vehicle
FALCON 9
Launch site
Air Force Western Test Range (AFWTR)
Object type
Payload
Rocket body
Debris
Shape & HBR
Trap Box + 2 Pan, 2.5 m
Radar Cross Section
2.032 m², Large (>1 m²)

Expand to show TLE details & history
Last TLE update: 8 hours ago

TLE from 8 hours ago
0 ONEWEB-0706
1 61611U 24188T   25261.91400598  .00000290  00000-0  79469-3 0  9999
2 61611  87.8734  90.3656 0002011 106.3886 253.7462 13.10368701 47852
Epoch: 2025-09-18T21:56Z
TLE epoch observation values (Epoch: 2025-09-18T21:56:10.116Z)
Latitude
-0.00008°
Longitude
123.25467°
Altitude
1,225.049 km
Speed
7.242 km/s
True Right ascension
06h 01m 27s
True Declination
0° 00' 00"
Sunlit
Object was in daylight at epoch
Visualization orbit readout
Latitude
Unknown
Longitude
Unknown
Altitude
Unknown
Speed
Unknown
Apparent Right ascension
Unknown
Apparent Declination
Unknown
Sunlit
N/A
Visualization observer readout
Local Sidereal Time
22:22:08
Azimuth
Unknown
Elevation
Unknown
Doppler factor
Unknown
Orbital elements
Apogee altitude
1,220.381 km
Perigee altitude
1,217.325 km
Semi-major axis
7,596.99 km
Eccentricity
0.0002
Inclination
87.8734°
RAAN
90.3656°
Arg. of periapsis
106.3886°
True anomaly
253.72408°
Mean anomaly
253.7462°
Eccentric anomaly
253.73514°
Mean motion
3.27779 °/min
Orbital period
109.83 mins
BSTAR
0.00079469
Loading maneuver chart data...
Computing Atmospheric mass density...
Loading historical data...
Loading historical data...
Loading historical data...
Loading historical data...
Loading historical data...
Loading historical data...
Loading historical data...

Documentation

Showing up to 5 results
|